星链-32785 (STARLINK-32785)
导读
STARLINK-32785是美国SpaceX公司星链(Starlink)星座的一员,于2025年1月8日发射入轨。星链项目旨在构建全球卫星互联网星座,通过部署数千颗低轨卫星,为全球偏远地区、海洋空域等场景提供高速宽带互联网接入服务。该卫星运行在近地轨道,作为星座组网的组成部分,承担着星间链路、信号转发等功能,助力星链星座覆盖能力的扩展,推动全球互联网络的普及与覆盖优化。
Basic Information
目录编号:
62531
目录名称:
STARLINK-32785
国际标识:
2025-004W
轨道中心:
EARTH
卫星名称:
星链-32785
卫星全名:
星链-32785 (STARLINK-32785)
卫星状态:
在轨 (已飞行604 天)
发射日期:
2025-01-08 UTC
国别 :
美国
(US)
星等 :
--
Orbit Information
| 数据来源 | 国际轨道数据 |
| 星历时间: | 2026-09-04T12:16:42+0800 15小时前 查看轨道信息 |
| 半长轴: | 6861.092km |
| 偏心率: | 0.0001302 |
| 轨道倾角: | 43.003° |
| 近地点辐角 | 290.256° |
| 升交点赤经 | 292.079° |
| 平近点角 | 69.815° |
| 近地点: | 482.061km |
| 远地点: | 483.849km |
| 周期: | 94.265分钟 |
| 每日圈数: | 15.276117 |
Detailed Information
固有亮度:
5
最大亮度:
2.5
卫星平台:
Starlink V1.0
覆盖范围:
全球
运营商:
太空探索技术公司
运营商所在国:
美国
制造商(研发单位):
太空探索技术公司
制造商所在国:
美国
使用方式:
暂无
Satellite Introduction
Starlink 计划是 SpaceX 推出的全球卫星互联网项目,通过发射低轨道卫星,为全球尤其是偏远地区提供高速、低延迟的互联网服务。自 2019 年起,Starlink 已部署数千颗卫星,旨在缩小全球数字鸿沟,推动互联网普及。该项目还为军事、航空等行业提供通信支持,带来广泛经济效益。
2D Orbit Map
3D Orbit Map
Orbit Altitude Analysis Chart
Orbit Inclination Analysis Chart
Orbit Comprehensive Analysis Chart
View Comprehensive ChartConjunction Data List
| Event ID | Objects | TCA | Miss Dist (km) | Collision Risk Probability | Collision Risk Index (CRI) | Action |
|---|---|---|---|---|---|---|
| CDM_260907-064505-725806-253121 |
STARLINK-5476
(57258)
STARLINK-32785
(62531) | 2026-09-07T 06:45:08+0000 |
0.374 km
远距离 | 3.026426E-4 高风险 | 0.85 | |
| CDM_260907-084206-253106-389321 |
STARLINK-32785
(62531)
STARLINK-33972
(63893) | 2026-09-07T 08:42:09+0000 |
0.671 km
远距离 | 4.008603E-5 中风险 | 0.67 | |
| CDM_260907-071705-670306-253121 |
STARLINK-30132
(56703)
STARLINK-32785
(62531) | 2026-09-07T 07:17:39+0000 |
2.879 km
极远距离 | 7.442168E-7 极低风险 | 0.32 |

